Columbia County, Pennsylvania, United States
Lat: 41.04N, Lon: 76.43W
Wx Zone: PAZ053
Local Info
Past Weather Observations for Sunday, October 19, 2014

NOTE: This archive is for the closest National Weather Service station to Columbia County. Information may differ from the station used for current weather conditions.

Click here for Long-term Archive

Time Weather Temperature Dewpoint Humidity Pressure Winds Precip Visibility
23:53
Overcast
50°F / 10°C 39°F / 4°C 67% 29.86 in
(1011 mb)
NW 6.9 mph
(NW 11 kph)
0.00 in
(0.00 mm)
10SM
22:53
Overcast
50°F / 10°C 43°F / 6°C 76% 29.86 in
(1011 mb)
N 5.8 mph
(N 9 kph)
0.00 in
(0.00 mm)
10SM
21:53
Overcast
52°F / 11°C 43°F / 6°C 72% 29.83 in
(1010 mb)
NW 6.9 mph
(NW 11 kph)
- 10SM
20:53
Overcast
54°F / 12°C 41°F / 5°C 63% 29.83 in
(1010 mb)
WNW 5.8 mph
(WNW 9 kph)
- 10SM
19:53
Overcast
54°F / 12°C 43°F / 6°C 67% 29.8 in
(1009 mb)
WNW 8.1 mph
(WNW 13 kph)
- 10SM
18:53
Overcast
55°F / 13°C 41°F / 5°C 59% 29.77 in
(1008 mb)
WNW 5.8 mph
(WNW 9 kph)
- 10SM
17:53
Overcast
55°F / 13°C 39°F / 4°C 55% 29.77 in
(1008 mb)
Variable 5.8 mph
(Variable 9 kph)
0.00 in
(0.00 mm)
10SM
16:53
Overcast
57°F / 14°C 39°F / 4°C 51% 29.74 in
(1007 mb)
NW 9.2 mph
(NW 15 kph)
- 10SM
15:53
Overcast
61°F / 16°C 39°F / 4°C 45% 29.71 in
(1006 mb)
W 8.1 mph
(W 13 kph)
- 10SM
14:53
Mostly Cloudy
61°F / 16°C 43°F / 6°C 52% 29.71 in
(1006 mb)
W 5.8 mph
(W 9 kph)
- 10SM
13:53
Overcast
57°F / 14°C 39°F / 4°C 51% 29.68 in
(1005 mb)
W 10.4 mph
(W 17 kph)
- 10SM
12:53
Overcast
61°F / 16°C 41°F / 5°C 48% 29.68 in
(1005 mb)
W 9.2 mph
(W 15 kph)
- 10SM
11:53
Overcast
61°F / 16°C 45°F / 7°C 55% 29.68 in
(1005 mb)
WNW 11.5 mph
(WNW 19 kph)
- 10SM
10:53
Mostly Cloudy
63°F / 17°C 45°F / 7°C 52% 29.68 in
(1005 mb)
Variable 6.9 mph
(Variable 11 kph)
- 10SM
09:53
Overcast
63°F / 17°C 46°F / 8°C 56% 29.65 in
(1004 mb)
SSW 9.2 mph
(SSW 15 kph)
- 10SM
08:53
Partly Cloudy
61°F / 16°C 46°F / 8°C 59% 29.65 in
(1004 mb)
Variable 4.6 mph
(Variable 7 kph)
- 10SM
07:53
Partly Cloudy
61°F / 16°C 48°F / 9°C 63% 29.65 in
(1004 mb)
SSW 4.6 mph
(SSW 7 kph)
- 10SM
06:53
Partly Cloudy
57°F / 14°C 52°F / 11°C 82% 29.62 in
(1003 mb)
S 5.8 mph
(S 9 kph)
- 10SM
05:53
Clear
54°F / 12°C 52°F / 11°C 94% 29.59 in
(1002 mb)
Calm - 10SM
04:53
Partly Cloudy
54°F / 12°C 52°F / 11°C 94% 29.59 in
(1002 mb)
S 4.6 mph
(S 7 kph)
- 10SM
03:53
Partly Cloudy
57°F / 14°C 54°F / 12°C 88% 29.59 in
(1002 mb)
Calm 0.00 in
(0.00 mm)
10SM
02:53
Overcast
Light Rain
57°F / 14°C 52°F / 11°C 82% 29.59 in
(1002 mb)
Calm 0.00 in
(0.00 mm)
10SM
01:53
Overcast
59°F / 15°C 52°F / 11°C 77% 29.59 in
(1002 mb)
SW 5.8 mph
(SW 9 kph)
- 10SM
00:53
Mostly Cloudy
57°F / 14°C 54°F / 12°C 88% 29.62 in
(1003 mb)
Variable 3.5 mph
(Variable 6 kph)
- 10SM
Time Weather Temperature Dewpoint Humidity Pressure Winds Precip Visibility


Weather for websites

WeatherForYou.com, LLC is not responsible for any damages or problems caused by this service. Current weather conditions are obtained from the closest station including government and personal stations which may have varying degrees of accuracy. Weather forecasts are derived from the NOAA NDFD. Like all things, this site belongs to Jesus Christ... He just trusts me to maintain it. If you have any questions or comments email webmaster@weatherforyou.com

Copyright © 2014, WeatherForYou.com LLC. All rights reserved.